Mora, MN

4:52 PM CDT on March 27, 2017 (GMT -0500)
Mora Municipal

Weather History for KJMR - March, 2012

Change the Weather History Date:

Wednesday, March 28, 2012

  Actual Average Record
Temperature  
Mean Temperature 42 °F -  
Max Temperature 50 °F 46 °F 78 °F (1946)
Min Temperature 35 °F 23 °F -8 °F (1970)
Degree Days  
Heating Degree Days 22    
Moisture  
Dew Point 31 °F    
Average Humidity 66    
Maximum Humidity 81    
Minimum Humidity 50    
Precipitation  
Precipitation 0.00 in - - ()
Sea Level Pressure  
Sea Level Pressure 29.95 in    
Wind  
Wind Speed 12 mph (NW)    
Max Wind Speed 16 mph    
Max Gust Speed 28 mph    
Visibility 10 miles    
Events      
Averages and records for this station are not official NWS values.
T = Trace of Precipitation, MM = Missing Value Source: NWS Daily Summary

Daily Weather History Graph

Daily Weather History Graph

Search for Another Location

Airport or City:

Trip Planner

Search our weather history database for the weather conditions in past years. The results will help you decide how hot, cold, wet, or windy it might be!

Date:

Astronomy

Mar. 28, 2012 Rise Set
Actual Time 6:59 AM CDT 7:36 PM CDT
Civil Twilight 6:29 AM CDT 8:07 PM CDT
Nautical Twilight 5:54 AM CDT 8:42 PM CDT
Astronomical Twilight 5:17 AM CDT 9:19 PM CDT
Moon 10:00 AM CDT (3/28) 12:55 AM CDT (3/28)
Length of Visible Light 13h 37m
Length of Day
12h 37m
Waxing Crescent, 30% of the Moon is Illuminated
Mar 28
Waxing Crescent
Mar 30
First Quarter
Apr 6
Full
Apr 13
Last Quarter
Apr 21
New

Hourly Weather History & Observations

Time (CDT) Temp. Windchill Dew Point Humidity Pressure Visibility Wind Dir Wind Speed Gust Speed Precip Events Conditions
12:16 AM 44.6 °F 38.1 °F 35.6 °F 71% 29.77 in 10.0 mi WNW 13.8 mph 18.4 mph N/A   Overcast
12:36 AM 44.6 °F 38.1 °F 35.6 °F 71% 29.77 in 10.0 mi WNW 13.8 mph 19.6 mph N/A   Overcast
12:56 AM 42.8 °F 35.8 °F 32.0 °F 66% 29.78 in 10.0 mi WNW 13.8 mph 27.6 mph N/A   Mostly Cloudy
1:15 AM 42.8 °F 36.2 °F 32.0 °F 66% 29.79 in 10.0 mi WNW 12.7 mph 21.9 mph N/A   Mostly Cloudy
1:36 AM 42.8 °F 36.2 °F 32.0 °F 66% 29.80 in 10.0 mi WNW 12.7 mph 23.0 mph N/A   Overcast
1:56 AM 41.0 °F 33.9 °F 32.0 °F 70% 29.80 in 10.0 mi WNW 12.7 mph 23.0 mph N/A   Overcast
2:15 AM 41.0 °F 33.9 °F 32.0 °F 70% 29.81 in 10.0 mi WNW 12.7 mph 20.7 mph N/A   Overcast
2:36 AM 41.0 °F 34.7 °F 32.0 °F 70% 29.82 in 10.0 mi WNW 10.4 mph 20.7 mph N/A   Overcast
2:56 AM 41.0 °F 33.9 °F 32.0 °F 70% 29.82 in 10.0 mi WNW 12.7 mph 21.9 mph N/A   Overcast
3:16 AM 41.0 °F 34.3 °F 32.0 °F 70% 29.83 in 10.0 mi WNW 11.5 mph 20.7 mph N/A   Overcast
3:36 AM 41.0 °F 34.3 °F 32.0 °F 70% 29.83 in 10.0 mi WNW 11.5 mph 16.1 mph N/A   Overcast
3:55 AM 39.2 °F 31.6 °F 30.2 °F 70% 29.83 in 10.0 mi WNW 12.7 mph - N/A   Overcast
4:16 AM 37.4 °F 30.3 °F 30.2 °F 75% 29.85 in 10.0 mi WNW 10.4 mph - N/A   Mostly Cloudy
4:36 AM 37.4 °F 28.2 °F 28.4 °F 70% 29.85 in 10.0 mi WNW 16.1 mph 20.7 mph N/A   Mostly Cloudy
4:56 AM 37.4 °F 28.9 °F 28.4 °F 70% 29.86 in 10.0 mi NW 13.8 mph 24.2 mph N/A   Mostly Cloudy
5:16 AM 37.4 °F 28.2 °F 28.4 °F 70% 29.86 in 10.0 mi NNW 16.1 mph 20.7 mph N/A   Mostly Cloudy
5:36 AM 35.6 °F 26.6 °F 28.4 °F 75% 29.87 in 10.0 mi NW 13.8 mph - N/A   Overcast
5:56 AM 35.6 °F 26.2 °F 28.4 °F 75% 29.88 in 10.0 mi NW 15.0 mph 21.9 mph N/A   Overcast
6:15 AM 35.6 °F 26.6 °F 28.4 °F 75% 29.89 in 10.0 mi NW 13.8 mph 19.6 mph N/A   Overcast
6:35 AM 35.6 °F 25.9 °F 30.2 °F 81% 29.90 in 10.0 mi NW 16.1 mph 20.7 mph N/A   Overcast
6:56 AM 35.6 °F 27.5 °F 30.2 °F 81% 29.91 in 10.0 mi NW 11.5 mph 17.3 mph N/A   Overcast
7:16 AM 35.6 °F 28.6 °F 30.2 °F 81% 29.92 in 10.0 mi NW 9.2 mph 19.6 mph N/A   Overcast
7:36 AM 35.6 °F 28.0 °F 30.2 °F 81% 29.93 in 10.0 mi NW 10.4 mph - N/A   Overcast
7:56 AM 35.6 °F 28.6 °F 30.2 °F 81% 29.94 in 10.0 mi NW 9.2 mph - N/A   Overcast
8:15 AM 37.4 °F 30.3 °F 30.2 °F 75% 29.95 in 10.0 mi NW 10.4 mph - N/A   Overcast
8:36 AM 37.4 °F 30.3 °F 30.2 °F 75% 29.97 in 10.0 mi NW 10.4 mph - N/A   Overcast
8:55 AM 37.4 °F 30.8 °F 30.2 °F 75% 29.98 in 10.0 mi NW 9.2 mph - N/A   Overcast
9:16 AM 37.4 °F 29.3 °F 30.2 °F 75% 29.99 in 10.0 mi NW 12.7 mph - N/A   Overcast
9:36 AM 37.4 °F 33.8 °F 30.2 °F 75% 29.99 in 10.0 mi North 4.6 mph - N/A   Overcast
9:56 AM 37.4 °F 28.9 °F 30.2 °F 75% 30.01 in 10.0 mi NNW 13.8 mph - N/A   Overcast
10:16 AM 37.4 °F 30.3 °F 30.2 °F 75% 30.01 in 10.0 mi NNW 10.4 mph - N/A   Overcast
10:35 AM 39.2 °F 32.5 °F 30.2 °F 70% 30.02 in 10.0 mi NNW 10.4 mph 17.3 mph N/A   Overcast
10:56 AM 39.2 °F 33.6 °F 30.2 °F 70% 30.03 in 10.0 mi NW 8.1 mph - N/A   Overcast
11:16 AM 41.0 °F 35.2 °F 30.2 °F 65% 30.04 in 10.0 mi NW 9.2 mph - N/A   Overcast
11:36 AM 41.0 °F 34.7 °F 30.2 °F 65% 30.04 in 10.0 mi NW 10.4 mph - N/A   Overcast
11:56 AM 42.8 °F 36.2 °F 32.0 °F 66% 30.05 in 10.0 mi NNW 12.7 mph 17.3 mph N/A   Overcast
12:16 PM 42.8 °F 37.5 °F 32.0 °F 66% 30.05 in 10.0 mi NW 9.2 mph - N/A   Overcast
12:36 PM 44.6 °F 38.4 °F 32.0 °F 61% 30.05 in 10.0 mi NW 12.7 mph - N/A   Overcast
12:56 PM 44.6 °F 38.8 °F 32.0 °F 61% 30.05 in 10.0 mi NW 11.5 mph 19.6 mph N/A   Overcast
1:15 PM 44.6 °F 40.7 °F 32.0 °F 61% 30.05 in 10.0 mi North 6.9 mph 18.4 mph N/A   Mostly Cloudy
1:36 PM 44.6 °F 39.2 °F 32.0 °F 61% 30.05 in 10.0 mi NW 10.4 mph 18.4 mph N/A   Overcast
1:56 PM 46.4 °F 41.9 °F 32.0 °F 57% 30.04 in 10.0 mi North 9.2 mph - N/A   Mostly Cloudy
2:16 PM 44.6 °F 40.7 °F 32.0 °F 61% 30.04 in 10.0 mi NNW 6.9 mph - N/A   Scattered Clouds
2:36 PM 48.2 °F - 32.0 °F 54% 30.04 in 10.0 mi NNW 6.9 mph 17.3 mph N/A   Scattered Clouds
2:56 PM 48.2 °F - 32.0 °F 54% 30.05 in 10.0 mi North 6.9 mph - N/A   Clear
3:15 PM 48.2 °F - 32.0 °F 54% 30.04 in 10.0 mi NNW 8.1 mph - N/A   Clear
3:36 PM 50.0 °F - 32.0 °F 50% 30.04 in 10.0 mi NW 10.4 mph 16.1 mph N/A   Clear
3:56 PM 48.2 °F - 32.0 °F 54% 30.04 in 10.0 mi NNW 10.4 mph 16.1 mph N/A   Clear
4:15 PM 50.0 °F - 32.0 °F 50% 30.04 in 10.0 mi NW 10.4 mph - N/A   Clear
4:36 PM 50.0 °F - 32.0 °F 50% 30.05 in 10.0 mi North 6.9 mph 17.3 mph N/A   Clear
4:56 PM 50.0 °F - 32.0 °F 50% 30.05 in 10.0 mi NNW 9.2 mph - N/A   Clear
5:16 PM 50.0 °F - 32.0 °F 50% 30.05 in 10.0 mi NNW 9.2 mph - N/A   Clear
5:36 PM 50.0 °F - 32.0 °F 50% 30.03 in 10.0 mi North 8.1 mph 16.1 mph N/A   Clear
5:55 PM 50.0 °F - 32.0 °F 50% 30.03 in 10.0 mi NW 10.4 mph - N/A   Clear
6:16 PM 50.0 °F - 32.0 °F 50% 30.04 in 10.0 mi NNW 8.1 mph - N/A   Clear
6:36 PM 48.2 °F - 32.0 °F 54% 30.04 in 10.0 mi NNW 6.9 mph - N/A   Clear
6:56 PM 48.2 °F - 32.0 °F 54% 30.05 in 10.0 mi NNW 9.2 mph - N/A   Clear
7:16 PM 44.6 °F 42.2 °F 32.0 °F 61% 30.05 in 10.0 mi NW 4.6 mph - N/A   Clear
7:35 PM 44.6 °F - 32.0 °F 61% 30.05 in 10.0 mi Calm Calm - N/A   Clear
7:56 PM 44.6 °F - 32.0 °F 61% 30.05 in 10.0 mi Calm Calm - N/A   Clear
8:16 PM 42.8 °F - 32.0 °F 66% 30.05 in 10.0 mi Calm Calm - N/A   Clear
8:35 PM 39.2 °F - 30.2 °F 70% 30.05 in 10.0 mi Calm Calm - N/A   Clear
8:56 PM 37.4 °F - 32.0 °F 81% 30.06 in 10.0 mi Calm Calm - N/A   Clear
9:16 PM 37.4 °F - 32.0 °F 81% 30.06 in 10.0 mi Calm Calm - N/A   Clear
9:36 PM 35.6 °F - 32.0 °F 87% 30.07 in 10.0 mi Calm Calm - N/A   Clear
9:56 PM 37.4 °F 34.9 °F 32.0 °F 81% 30.07 in 10.0 mi NE 3.5 mph - N/A   Clear
10:15 PM 37.4 °F - 30.2 °F 75% 30.08 in 10.0 mi Calm Calm - N/A   Clear
10:36 PM 37.4 °F 34.9 °F 30.2 °F 75% 30.08 in 10.0 mi NE 3.5 mph - N/A   Clear
10:56 PM 37.4 °F - 30.2 °F 75% 30.08 in 10.0 mi Calm Calm - N/A   Clear
11:15 PM 35.6 °F - 30.2 °F 81% 30.10 in 10.0 mi Calm Calm - N/A   Clear
11:36 PM 35.6 °F - 30.2 °F 81% 30.10 in 10.0 mi Calm Calm - N/A   Clear
11:56 PM 33.8 °F - 28.4 °F 81% 30.10 in 10.0 mi Calm Calm - N/A   Clear